Flag for U.S.A. Weather past 2 weeks in Hampton, Virginia, U.S.A.

Now
45 °F

Light rain. Fog.


Feels Like: 38 °F
Forecast: 44 / 50 °F
Wind: 13 mph from North

Location: Langley Air Force Base

Current Time: Dec 22, 2014 at 8:56:18 PM

Latest Report: Dec 22, 2014 at 8:03 PM


Visibility: 2 mi

Pressure: 30.04 "Hg

Humidity: 93%

Dew point: 43 °F

Location of HamptonLocation

Historic Weather in Hampton — Graph

°F

Hampton temperature yesterday

Maximum temperature yesterday: 42 °F (at 12:58 PM)
Minimum temperature yesterday: 28 °F (at 3:58 AM)
Average temperature yesterday: 36 °F

Past Weeks' High & Low Weather Summary

 TemperatureHumidityPressure
High59 °F (Dec 16, 1:58 PM)100% (Dec 13, 9:48 PM)30.49 "Hg (Dec 13, 9:48 PM)
Low28 °F (Dec 13, 6:58 AM)34% (Dec 12, 12:58 PM)29.83 "Hg (Dec 9, 3:00 PM)
Average41 °F74%30.11 "Hg
* Reported Dec 7 6:58 PM — Dec 22 6:58 PM, Hampton, Weather by CustomWeather, © 2014

Note: Actual official high and low records may vary slightly from our data, if they occured in-between our weather recording intervals... More about our weather records

Advertising

Hampton weather history for previous 24 hours

 ConditionsComfort  
Time TempWeatherWind HumidityBarometerVisibility
6:58 PM
Dec 22
44 °FLight rain. Fog.12 mph96%30.08 "Hg2 mi
5:58 PM44 °FLight rain. Fog.10 mph96%30.06 "Hg3 mi
5:03 PM45 °FFog.9 mph93%30.05 "Hg2 mi
3:58 PM44 °FLight rain. Fog.14 mph96%30.05 "Hg2 mi
3:04 PM45 °FLight rain. Fog.10 mph93%30.08 "Hg2 mi
2:59 PM45 °FDrizzle. Fog.13 mph93%30.07 "Hg2 mi
1:58 PM43 °FLight rain. Fog.12 mph96%30.09 "Hg2 mi
10:00 AM41 °FRain. Fog.10 mph93%30.20 "Hg2 mi
9:58 AM41 °FRain. Fog.12 mph94%30.23 "Hg2 mi
8:58 AM40 °FLight rain. Fog.13 mph93%30.24 "Hg3 mi
7:58 AM39 °FRain. Fog.12 mph92%30.24 "Hg2 mi
7:03 AM39 °FRain. Fog.16 mph87%30.22 "Hg2 mi
6:00 AM39 °FDrizzle. Overcast.17 mph81%30.23 "Hg5 mi
4:58 AM39 °FOvercast.16 mph82%30.25 "Hg5 mi
3:59 AM41 °FLight rain. Overcast.14 mph76%30.24 "Hg5 mi
2:58 AM40 °FOvercast.15 mph78%30.28 "Hg6 mi
1:58 AM40 °FOvercast.12 mph77%30.30 "Hg7 mi
12:58 AM38 °FPassing clouds.12 mph82%30.30 "Hg7 mi
11:58 PM
Dec 21
37 °FClear.9 mph80%30.31 "Hg7 mi
10:58 PM35 °FClear.10 mph84%30.32 "Hg9 mi
9:58 PM34 °FClear.8 mph83%30.33 "Hg10 mi
8:58 PM34 °FClear.7 mph84%30.34 "Hg10 mi
Weather by CustomWeather, © 2014

See weather overviewHow to use our weather pages